This is the latest recevied weather packets stored in our database for station/object IT9IJI-13. If no packets are shown the sender has not sent any weather packets the latest 1 day(s).
| Time | Temp. | Humidity | Pressure | Rain* | Wind** | Luminosity | Snow |
|---|---|---|---|---|---|---|---|
| 1777984383 | 22.22° C | 57% | 1017.3 hPa | 0 mm | 0.45 m/s, 98° | 0 W/m² | - |
| 1777984323 | 22.22° C | 57% | 1017.2 hPa | 0 mm | 0.45 m/s, 98° | 0 W/m² | - |
| 1777984263 | 22.22° C | 57% | 1017.3 hPa | 0 mm | 0.45 m/s, 101° | 0 W/m² | - |
| 1777984203 | 22.22° C | 57% | 1017.4 hPa | 0 mm | 0.45 m/s, 101° | 0 W/m² | - |
| 1777984143 | 22.22° C | 57% | 1017.4 hPa | 0 mm | 0.45 m/s, 104° | 0 W/m² | - |
| 1777984083 | 22.22° C | 57% | 1017.2 hPa | 0 mm | 0.45 m/s, 104° | 0 W/m² | - |
| 1777984023 | 22.22° C | 57% | 1017.2 hPa | 0 mm | 0.45 m/s, 109° | 0 W/m² | - |
| 1777983963 | 22.22° C | 57% | 1017.1 hPa | 0 mm | 0.45 m/s, 111° | 0 W/m² | - |
| 1777983903 | 22.22° C | 57% | 1017.2 hPa | 0 mm | 0.45 m/s, 111° | 0 W/m² | - |
| 1777983843 | 22.22° C | 57% | 1017.2 hPa | 0 mm | 0 m/s | 0 W/m² | - |
| 1777983783 | 22.22° C | 57% | 1017.1 hPa | 0 mm | 0.45 m/s, 113° | 0 W/m² | - |
| 1777983723 | 22.22° C | 57% | 1017.2 hPa | 0 mm | 0.45 m/s, 109° | 0 W/m² | - |
| 1777983663 | 22.22° C | 57% | 1017.2 hPa | 0 mm | 0.45 m/s, 102° | 0 W/m² | - |
| 1777983603 | 22.22° C | 57% | 1017.3 hPa | 0 mm | 0.45 m/s, 101° | 0 W/m² | - |
| 1777983543 | 22.22° C | 57% | 1017.2 hPa | 0 mm | 0.45 m/s, 99° | 0 W/m² | - |
| 1777983483 | 22.22° C | 57% | 1017.2 hPa | 0 mm | 0.45 m/s, 98° | 0 W/m² | - |
| 1777983423 | 22.22° C | 57% | 1017.4 hPa | 0 mm | 0.45 m/s, 101° | 0 W/m² | - |
| 1777983363 | 22.22° C | 57% | 1017.4 hPa | 0 mm | 0.45 m/s, 103° | 0 W/m² | - |
| 1777983303 | 22.22° C | 56% | 1017.4 hPa | 0 mm | 0.45 m/s, 104° | 0 W/m² | - |
| 1777983243 | 22.22° C | 56% | 1017.4 hPa | 0 mm | 0.45 m/s, 104° | 0 W/m² | - |
| 1777983183 | 22.22° C | 57% | 1017.4 hPa | 0 mm | 0.45 m/s, 107° | 0 W/m² | - |
| 1777983123 | 22.22° C | 57% | 1017.4 hPa | 0 mm | 0.45 m/s, 111° | 0 W/m² | - |
| 1777983063 | 22.22° C | 57% | 1017.3 hPa | 0 mm | 0.45 m/s, 116° | 0 W/m² | - |
| 1777983003 | 22.22° C | 57% | 1017.4 hPa | 0 mm | 0.45 m/s, 114° | 0 W/m² | - |
| 1777982943 | 22.22° C | 56% | 1017.4 hPa | 0 mm | 0.45 m/s, 114° | 0 W/m² | - |
* Rain latest hour (hover to see other rain measurements)
** Current wind speed in m/s (hover to see current wind gust speed)